Cut Bank, MT

4:37 PM MDT on April 25, 2017 (GMT -0600)
Cut Bank Municipal

Weather History for KCTB - November, 2013

Change the Weather History Date:

Wednesday, November 20, 2013

  Actual Average Record
Temperature  
Mean Temperature -5 °F 28 °F  
Max Temperature 6 °F 38 °F 62 °F (1987)
Min Temperature -16 °F 19 °F -21 °F (1921)
Degree Days  
Heating Degree Days 70 37  
Month to date heating degree days 723 654  
Since 1 July heating degree days 1744 1878  
Cooling Degree Days 0 0  
Month to date cooling degree days 0 0  
Year to date cooling degree days 226 162  
Moisture  
Dew Point -5 °F    
Average Humidity 78    
Maximum Humidity 87    
Minimum Humidity 68    
Precipitation  
Precipitation 0.01 in 0.01 in 0.30 in (1970)
Month to date precipitation 0.36 0.25  
Year to date precipitation 14.41 10.57  
Snow  
Snow 0.00 in - - ()
Snow Depth 2.00 in    
Sea Level Pressure  
Sea Level Pressure 30.19 in    
Wind  
Wind Speed 10 mph (NNW)    
Max Wind Speed 23 mph    
Max Gust Speed 26 mph    
Visibility 7 miles    
Events Snow    
T = Trace of Precipitation, MM = Missing Value Source: NWS Daily Summary

Daily Weather History Graph

Daily Weather History Graph

Search for Another Location

Airport or City:

Trip Planner

Search our weather history database for the weather conditions in past years. The results will help you decide how hot, cold, wet, or windy it might be!

Date:

Astronomy

Nov. 20, 2013 Rise Set
Actual Time 7:45 AM MST 4:44 PM MST
Civil Twilight 7:10 AM MST 5:19 PM MST
Nautical Twilight 6:32 AM MST 5:57 PM MST
Astronomical Twilight 5:54 AM MST 6:35 PM MST
Moon 7:30 PM MST (11/20) 10:14 AM MST (11/20)
Length of Visible Light 10h 08m
Length of Day
8h 58m
Waning Gibbous, 91% of the Moon is Illuminated
Nov 20
Waning Gibbous
Nov 25
Last Quarter
Dec 2
New
Dec 9
First Quarter
Dec 17
Full

Hourly Weather History & Observations

Time (MST) Temp. Windchill Dew Point Humidity Pressure Visibility Wind Dir Wind Speed Gust Speed Precip Events Conditions
12:01 AM 5.0 °F -10.8 °F -0.0 °F 80% 29.83 in 1.8 mi NNW 11.5 mph - 0.00 in Snow Light Snow
12:23 AM 5.0 °F -11.6 °F -0.0 °F 80% 29.84 in 1.5 mi NNW 12.7 mph - 0.00 in Snow Light Snow
12:39 AM 5.0 °F -9.1 °F 1.0 °F 84% 29.84 in 0.8 mi NNW 9.2 mph - 0.00 in Snow Light Snow
12:49 AM 5.0 °F -9.1 °F 1.0 °F 84% 29.83 in 1.2 mi North 9.2 mph - 0.00 in Snow Light Snow
12:56 AM 5.0 °F -10.0 °F -0.0 °F 80% 30.04 in 1.2 mi NNW 10.4 mph - 0.00 in Snow Light Snow
1:06 AM 3.9 °F -12.2 °F -0.0 °F 84% 29.84 in 2.0 mi North 11.5 mph - 0.00 in Snow Light Snow
1:15 AM 3.9 °F -11.3 °F -0.0 °F 84% 29.84 in 5.0 mi North 10.4 mph - 0.00 in Snow Light Snow
1:27 AM 5.0 °F -10.8 °F -0.0 °F 80% 29.85 in 9.0 mi North 11.5 mph - 0.00 in   Overcast
1:56 AM 3.9 °F -12.2 °F -0.9 °F 80% 30.06 in 10.0 mi North 11.5 mph - 0.00 in   Overcast
2:56 AM 3.0 °F -14.1 °F -2.0 °F 80% 30.09 in 9.0 mi North 12.7 mph - 0.00 in   Overcast
3:56 AM 1.9 °F -15.5 °F -2.9 °F 80% 30.11 in 10.0 mi North 12.7 mph - 0.01 in   Overcast
4:56 AM 1.0 °F -15.8 °F -2.9 °F 83% 30.13 in 10.0 mi North 11.5 mph - N/A   Overcast
5:56 AM -0.0 °F -18.0 °F -4.0 °F 83% 30.17 in 10.0 mi NNW 12.7 mph - N/A   Scattered Clouds
6:48 AM 1.0 °F -18.0 °F -4.0 °F 79% 29.97 in 2.0 mi North 15.0 mph - 0.00 in Snow Light Snow
6:53 AM 1.4 °F -15.3 °F -2.2 °F 85% 29.97 in 1.5 mi North 11.5 mph - 0.00 in Snow Light Snow
6:56 AM 1.9 °F -13.8 °F -2.9 °F 80% 30.21 in 1.2 mi North 10.4 mph - 0.00 in Snow Light Snow
7:29 AM 1.0 °F -19.3 °F -5.1 °F 75% 30.00 in 3.0 mi North 17.3 mph - 0.00 in Snow Light Snow
7:49 AM -0.0 °F -21.3 °F -5.1 °F 79% 30.02 in 2.5 mi North 18.4 mph - 0.00 in Snow Light Snow
7:56 AM -0.0 °F -20.1 °F -5.1 °F 79% 30.27 in 2.5 mi North 16.1 mph - 0.00 in Snow Light Snow
8:04 AM -0.0 °F -20.1 °F -5.1 °F 79% 30.05 in 4.0 mi North 16.1 mph - 0.00 in Snow Light Snow
8:11 AM -0.0 °F -20.7 °F -6.0 °F 76% 30.05 in 4.0 mi NNW 17.3 mph - 0.00 in Snow Light Snow
8:21 AM -0.9 °F -21.9 °F -6.0 °F 79% 30.06 in 3.0 mi North 17.3 mph - 0.00 in Snow Light Snow
8:56 AM -0.9 °F -19.9 °F -7.1 °F 75% 30.33 in 10.0 mi North 13.8 mph - 0.00 in   Overcast
9:45 AM -0.9 °F -20.6 °F -6.0 °F 79% 30.12 in 9.0 mi NNW 15.0 mph - N/A   Overcast
9:56 AM -0.0 °F -21.3 °F -7.1 °F 72% 30.37 in 10.0 mi NNW 18.4 mph - N/A   Mostly Cloudy
10:56 AM 3.9 °F -16.6 °F -4.0 °F 70% 30.38 in 9.0 mi NNW 19.6 mph - N/A   Overcast
11:56 AM 1.9 °F -16.9 °F -5.1 °F 72% 30.39 in 6.0 mi NW 15.0 mph - 0.00 in   Haze
12:56 PM 5.0 °F -8.1 °F -4.0 °F 66% 30.39 in 10.0 mi WNW 8.1 mph - N/A   Scattered Clouds
1:56 PM 5.0 °F -8.1 °F -4.0 °F 66% 30.39 in 10.0 mi West 8.1 mph - N/A   Mostly Cloudy
2:56 PM 5.0 °F -6.9 °F -4.0 °F 66% 30.40 in 10.0 mi West 6.9 mph - N/A   Clear
3:56 PM 3.0 °F - -5.1 °F 69% 30.42 in 10.0 mi North - - N/A   Clear
4:56 PM -2.0 °F -15.4 °F -9.0 °F 72% 30.46 in 10.0 mi South 6.9 mph - N/A   Clear
5:56 PM -4.0 °F -19.0 °F -9.9 °F 76% 30.48 in 10.0 mi South 8.1 mph - N/A   Clear
6:56 PM -2.9 °F -15.0 °F -9.0 °F 75% 30.48 in 10.0 mi South 5.8 mph - N/A   Clear
7:56 PM -6.0 °F - -9.0 °F 87% 30.51 in 10.0 mi Calm Calm - N/A   Clear
8:56 PM -9.9 °F -19.2 °F -13.0 °F 86% 30.52 in 10.0 mi North 3.5 mph - N/A   Clear
9:56 PM -11.9 °F -23.8 °F -15.0 °F 86% 30.54 in 10.0 mi NNE 4.6 mph - N/A   Clear
10:56 PM -13.0 °F -22.7 °F -17.0 °F 82% 30.53 in 10.0 mi NNW 3.5 mph - N/A   Clear
11:56 PM -15.0 °F -27.4 °F -18.9 °F 82% 30.55 in 10.0 mi North 4.6 mph - N/A   Clear